www.pogodaiklimat.ru

Погода и климат >> Архив погоды >> Украина >> Болград


ПОГОДА в Болграде

  • Прогноз погоды в Болграде
  • Монитор погоды в Болграде

АРХИВ ПОГОДЫ в Болграде

Время (UTC), дата Ветер
(напр.,м/с)
 
Видим.   Явления Облачность Т
(С)
Тd
(С)
f
(%)
Тe
(С)
Тes
(С)
Комфортность P
(гПа)
Po
(гПа)
Тmin
(С)
Tmax
(С)
R
(мм)
R24
(мм)
S
(см)
09 12.06 С 4 10 км 5/0
[Ac trans Cc]
+31.4 +14.1 35 +33 +42 жарко 1012.3 1003.1
12 12.06 СВ 4 10 км 10/5 600 м
[Cu hum Ci]
+33.3 +10.6 25 +33 +37 жарко 1011.5 1002.4
15 12.06 С 4 10 км 6/4 600 м
[Cu med, cong Ci fib]
+32.6 +13.7 32 +34 +36 очень
жарко
1010.6 1001.5
18 12.06 СЗ 2 10 км 8/3 600 м
[Sc diur, vesp Ac trans Ci]
+28.3 +14.9 44 +31 +31 душно 1011.8 1002.6 +33.7
21 12.06 СЗ 3 4000 м 9/0
[Ac trans Cc]
+24.3 +16.0 60 +28 +28 душно 1012.6 1003.2
00 13.06 С 2 4000 м 6/0
[Ac trans]
+21.9 +15.5 67 +26 +26 душно 1012.6 1003.1
03 13.06 С 2 10 км в посл. час ливневой дождь 8/8 600 м
[Cb cap]
+21.4 +15.7 70 +25 +25 комфорт 1013.0 1003.5
06 13.06 СВ 2 10 км {ливн. осадки} 8/8 1000 м
[Cu Sc]
+26.8 +15.2 49 +30 +31 душно 1014.5 1005.2 +21.3 0.0
09 13.06 С 1 10 км 4/1 600 м
[Cu Sc Ci fib]
+31.3 +13.5 34 +33 +50 жарко 1014.3 1005.1
12 13.06 С 4 10 км 8/8 600 м
[Cb cap]
+33.4 +13.9 31 +35 +37 душно 1013.4 1004.3
15 13.06 В 4 10 км 8/8 600 м
[Cb cap]
+29.0 +12.8 37 +30 +31 жарко 1014.2 1005.0
18 13.06 штиль 0 10 км 4/1 1000 м
[Sc Ac lent Ci]
+25.5 +11.7 42 +27 +27 жарко 1015.5 1006.1 +33.5
21 13.06 СЗ 1 4000 м 6/0
[Ac trans Ci fib]
+21.7 +12.5 56 +24 +24 комфорт 1016.1 1006.6
00 14.06 С 2 4000 м 8/8 600 м
[Sc Ac lent]
+20.9 +14.1 65 +24 +24 комфорт 1016.0 1006.5
03 14.06 С 2 10 км 9/8 600 м
[Sc Ac trans]
+20.9 +14.8 68 +25 +25 комфорт 1015.5 1006.0
06 14.06 С 4 10 км 3/0
[Cc]
+24.9 +15.3 55 +28 +33 жарко 1016.2 1006.8 +20.0
09 14.06 СВ 2 10 км 3/0
[Ac cast Cc]
+30.5 +14.2 37 +32 +48 жарко 1016.3 1007.1
12 14.06 СВ 3 10 км 9/8 600 м
[Cb cap Cc]
+32.9 +15.0 34 +35 +37 душно 1015.6 1006.5
15 14.06 СЗ 3 10 км {гроза} 8/4 600 м
[Cb cap Ac trans Cc]
+29.5 +12.5 35 +31 +32 жарко 1015.6 1006.4
18 14.06 С 2 10 км {гроза} 8/4 600 м
[Sc Ac trans Ci fib]
+24.4 +17.6 66 +28 +28 душно 1015.8 1006.4 +33.5
21 14.06 СЗ 3 4000 м 9/9 600 м
[Sc]
+22.8 +16.6 68 +27 +27 душно 1017.3 1007.8
00 15.06 С 1 4000 м 10/10 600 м
[Sc]
+21.9 +15.9 69 +26 +26 душно 1016.0 1006.5
03 15.06 С 2 10 км 8/8 600 м
[Sc]
+20.3 +15.7 75 +24 +24 комфорт 1015.8 1006.3
06 15.06 СЗ 2 10 км 9/0
[Ac trans Ci fib]
+22.9 +17.1 70 +28 +32 душно 1016.3 1006.8 +20.0
09 15.06 С 3 10 км 9/3 1000 м
[Cu med, cong Ac trans]
+30.3 +18.1 48 +35 +40 очень
душно
1015.2 1006.0
12 15.06 СЗ 2 10 км гроза без осадков {ливн. осадки} 9/9 600 м
[Cb cap]
+26.8 +17.8 58 +31 +33 душно 1013.3 1004.0
18 15.06 С 1 10 км {гроза, ливн. осадки} 9/3 600 м
[Cb cap Ac trans Ci sp]
+20.6 +17.5 82 +25 +25 комфорт 1013.4 1003.9 +33.3 17
21 15.06 СЗ 1 4000 м 4/0
[Ac lent Ci fib]
+20.3 +16.6 79 +24 +24 комфорт 1014.0 1004.5
00 16.06 С 2 4000 м 3/0
[Ci fib]
+19.4 +16.8 85 +22 +22 комфорт 1012.6 1003.1
03 16.06 С 2 10 км ясно +18.5 +17.0 91 +20 +20 1012.5 1002.9
06 16.06 С 2 10 км 1/0
[Ci fib]
+23.5 +19.9 80 +29 +36 душно 1012.9 1003.5 +18.4
09 16.06 СВ 3 10 км 8/4 600 м
[Cu med, cong Ci fib]
+31.1 +15.5 39 +34 +41 душно 1012.8 1003.6
12 16.06 В 1 10 км гроза, ливневой дождь 8/5 600 м
[Cb cap Ac lent Ci]
+27.2 +15.6 49 +30 +37 душно 1012.3 1003.0
15 16.06 СЗ 3 10 км {гроза, ливн. осадки} 9/4 600 м
[Cb cap Ac cast Ci]
+29.1 +17.9 51 +34 +35 очень
душно
1011.8 1002.6
18 16.06 С 2 10 км {гроза, ливн. осадки} 5/0
[Ci sp]
+24.1 +19.4 75 +29 +29 душно 1012.2 1002.8 +32.1 0.1
21 16.06 С 2 4000 м ясно +21.9 +18.8 83 +27 +27 душно 1012.6 1003.1
00 17.06 С 2 4000 м 1/0
[Ac trans]
+20.6 +18.7 89 +25 +25 комфорт 1012.7 1003.2
03 17.06 С 2 10 км 3/0
[Ac trans]
+19.8 +17.8 88 +23 +23 комфорт 1013.4 1003.9
06 17.06 С 2 10 км ясно +27.1 +17.6 56 +31 +39 душно 1013.9 1004.6 +19.8
09 17.06 СВ 4 10 км 3/1 600 м
[Cu hum Ci fib]
+31.3 +14.9 37 +33 +44 жарко 1013.7 1004.5
12 17.06 С 4 10 км 8/3 1000 м
[Cu hum Ci fib]
+32.2 +10.9 27 +32 +38 жарко 1013.3 1004.1
15 17.06 В 3 10 км 9/3 600 м
[Cu hum Ci fib]
+31.3 +14.9 37 +33 +36 жарко 1012.5 1003.3
18 17.06 В 1 10 км 3/0
[Ac lent Ci fib]
+27.2 +13.5 43 +29 +29 жарко 1013.6 1004.3 +33.1
00 18.06 С 2 4000 м 3/0
[Ac trans Ci fib]
+21.2 +16.0 72 +25 +25 комфорт 1015.1 1005.6
06 18.06 С 4 10 км 3/0
[Ac lent Cc]
+24.3 +16.8 63 +28 +33 душно 1015.9 1006.5 +19.7
12 18.06 СЗ 2 10 км 8/4 600 м
[Cb cap Ac trans Ci fib]
+30.3 +15.9 42 +33 +40 душно 1014.2 1005.0
18 18.06 СЗ 1 10 км {гроза, ливн. осадки} 8/5 600 м
[Cb cap Ci fib]
+22.8 +17.7 73 +28 +28 душно 1014.2 1004.8 +31.5 3
00 19.06 С 3 4000 м 3/3 600 м
[Sc]
+19.5 +16.8 84 +22 +22 комфорт 1014.8 1005.3

 

Местоположение метеостанции Болград (Одесская область, Украина): широта 45.67 долгота 28.62 высота над уровнем моря 81 м.

В архиве по умолчанию представлена погода в Болграде за последнюю неделю. Архивные данные за месяц целиком и за предыдущие месяцы, начиная с января 2011 года, Вы можете получить, выбрав интересующий диапазон дат из раскрывающегося списка и нажав кнопку "Ввод!".


*Определитесь, кто Вы:
робот инопланетянин человек

Внимание! Время в таблицах - всемирное. Для получения местного времени необходимо прибавить поправку, которая равна 2 ч.

Смотрите также архив погоды в соседних городах и на ближайших метеорологических станциях:

Погода в Измаиле (Одесская область, Украина) (38 км)
Погода в Кагуле (Молдова) (38 км)
Погода в Галаце (Румыния) (51 км)
Погода в Чадыр-Лунге (Молдова) (53 км)
Погода в Тулче (Румыния) (57 км)
Погода в Горгове (Румыния) (69 км)
Погода в Комрате (Молдова) (70 км)
Погода в Махмудиа (Румыния) (74 км)
Погода в Брэиле (Румыния) (76 км)
Погода в Вилково (Одесская область, Украина) (76 км)

Пояснения к столбцам:

Ветер - указаны скорость ветра в м/с - средняя за 10 мин, порывы в срок и между сроками (в фигурных скобках) и направление, откуда дует ветер: С - северный, СВ - северо-восточный, В - восточный, ЮВ - юго-восточный, Ю - южный, ЮЗ - юго-западный, З - западный, СЗ - северо-западный.
Видимость - горизонтальная дальность видимости в метрах или километрах. При видимости от 1 до 10 км при отсутствии осадков обычно наблюдается дымка, при ухудшении видимости до 1 км и менее - туман. В сухую погоду видимость может ухудшаться дымом, пылью или мглою.
Явления - указаны атмосферные явления, наблюдавшиеся в срок или в последний час перед сроком; фигурными скобками обозначены явления, наблюдавшиеся между сроками (за 1-3 часа до срока); квадратными скобками обозначены град или гололедные отложения с указанием их диаметра в мм.
Облачность - указаны через наклонную черту общая и нижняя облачность в баллах и высота нижней границы облаков в метрах; квадратными скобками обозначены формы облаков: Ci - перистые, Cs - перисто-слоистые, Cc - перисто-кучевые, Ac - высококучевые, As - высокослоистые, Sc - слоисто-кучевые, Ns - слоисто-дождевые, Cu - кучевые, Cb - кучево-дождевые. Подробнее классификацию облаков см. в Атласе облаков (PDF).
T - Температура воздуха - температура, измеренная на высоте 2 м над землей.
Td - Температура точки росы - температура, при понижении до которой содержащийся в воздухе водяной пар достигнет насыщения.
f - Относительная влажность воздуха - влажноcть воздуха, измеренная на высоте 2 м над землей.
Te - Эффективная температура - температура, которую ощущает одетый по сезону человек в тени. Характеристика душности погоды. При расчете учитывается влияние влажности воздуха и скорости ветра на теплоощущения человека.
Tes - Эффективная температура на солнце - температура, которую ощущает человек, с поправкой на солнечный нагрев. Характеристика знойности погоды. Зависит от высоты солнца над горизонтом, облачности и скорости ветра. Ночью, в пасмурную погоду, а также при ветре 12 м/с и более поправка равна нулю.
P - Атмосферное давление - приведенное к уровню моря атмосферное давление.
Po - Атмосферное давление - измеренное на уровне метеостанции атмосферное давление.
Tmin - Минимальная температура - минимум температуры воздуха на высоте 2 м над землей.
Tmax - Максимальная температура - максимум температуры воздуха на высоте 2 м над землей.
R - Количество осадков - Количество выпавших осадков за период времени, мм. При наведении курсора мыши на число - период времени, за который выпало указанное количество осадков.
R24 - Количество осадков - Количество выпавших осадков за 24 часа, мм.
S - Снежный покров - Высота снежного покрова, см. При наведении курсора мыши на число - состояние снежного покрова и степень покрытия местности в баллах.